User: anonymous   Login
Location: Columbia
(38.9520°N, 92.3340°W)
Time: 11:02:49
(UTC-05:00)
Language:

Cosmos 2219 Rocket - Orbit

View from above orbital plane
View from above orbital plane
View from above satellite
View from above satellite

Ground track
Ground track

The orbit data is extracted from the following two-line orbital elements,

1 22220U 92076B   17081.90241103 -.00000216 +00000-0 -84634-4 0  9999
2 22220 070.9991 240.8723 0011367 035.9634 117.9785 14.16413468258224
Epoch (UTC): 22 March 2017 21:39:28
Eccentricity: 0.0011367
inclination: 70.9991°
perigee height: 829 km
apogee height: 846 km
right ascension of ascending node: 240.8723°
argument of perigee: 35.9634°
revolutions per day: 14.16413468
mean anomaly at epoch: 117.9785°
orbit number at epoch: 25822

The dashed part of the orbit path shows where the satellite is in the earth's shadow,  

DLR